Погода в Дьяконове

Россия / Тульская область     54°33′53″N   38°19′13″E
темп.,
°C
ветер,
м/с
пор.,
м/с
влажн.,
%
обл.,
%
осадки,
мм/ч
давл.,
гПа
погр.,
м
7 марта, вс
вс700:00−12зюз47870 0.0 101592
03:00−12юз512900 0.0 1013208
06:00−9юз7158971 0.0 1009404
09:00−7юз11188986 0.1 1004748
12:00−4юз111892100 0.5 10001131
15:00−2зюз111793100 1.4 9961241
18:00−2юз101894100 0.8 9941115
21:00−6з598995 2.6 994210
8 марта, пн
пн800:00−8з8167746 0.5 997498
03:00−9зюз7148623 0.5 999411
06:00−9зюз6138971 0.0 998371
09:00−7зюз7139073 0.0 999659
12:00−5з8128491 0.1 10001340
15:00−6зсз7108095 0.2 10021158
18:00−9сз488769 0.1 1005149
21:00−12сз349235 0.1 100872
9 марта, вт
вт900:00−14сз339511 0.0 101030
03:00−15сз349653 0.0 101142
06:00−14сз349699 0.1 101385
09:00−13ссз479499 0.1 1015385
12:00−12ссз4690100 0.1 1016541
15:00−11ссз4684100 0.1 1017764
18:00−13ссз3393100 0.1 101862
21:00−17ссз349492 0.1 102158
10 марта, ср
ср1000:00−20ссз349962 0.0 102247
03:00−23ссз349639 0.0 102442
06:00−25ссз34960 0.0 102535
09:00−22ссз23968 0.0 1027133
12:00−17с23818 0.0 1027343
15:00−14с22749 0.0 1027470
18:00−18в00870 0.0 102720
21:00−21ю01910 0.0 102920
11 марта, чт
чт1100:00−21ю22890 0.0 102920
03:00−22ю33877 0.0 102924
06:00−21ю348792 0.0 102967
09:00−15ю479596 0.1 1028251
12:00−11ю5793100 0.3 1027404
15:00−8ююз5892100 0.4 1026430
18:00−11ю5109161 0.0 1025266
21:00−12ююз5119438 0.0 1024253